Friday Harbor, WA
on Tuesday, November 27, 2012

Tuesday
Previous Day Next Day
Daily Summary
 ActualAverageRecord
Temperature
Mean Temperature °F °F  
Max Temperature 46°F 45°F 55°F (2011)
Min Temperature 34°F 37°F 28°F (2006)
Degree Days
Heating Degree Days 25    
Moisture
Dew Point 34°F   
Average Humidity 80    
Maximum Humidity 93    
Minimum Humidity 59    
Precipitation
Precipitation 0.00 in in in ()
Wind
Wind Speed 1 mph   
Max Wind Speed 7 mph   
Max Gust Speed mph   
Visibility 10 miles   
Events     
Averages and records for this station are not official NWS values.
Key: T is trace of precipitation, MM is missing value
Source: NWS Daily Summary
Seasonal Weather Averages
Time(PST)TemperatureDew PointHumidity Pressure Visibility Wind DirectionWind SpeedGust SpeedPrecipitationEvents Conditions
12:53 AM 39.9°F 32.0°F 73% 30.09 in 10.0 miles Calm Calm - N/A   Clear
1:53 AM 39.0°F 32.0°F 76% 30.09 in 10.0 miles Calm Calm - N/A   Clear
2:53 AM 39.0°F 30.9°F 73% 30.09 in 10.0 miles NNW 3.5 mph - N/A   Clear
3:53 AM 34.0°F 30.0°F 85% 30.09 in 10.0 miles Calm Calm - N/A   Clear
4:53 AM 35.1°F 32.0°F 89% 30.09 in 10.0 miles Calm Calm - N/A   Clear
5:53 AM 35.1°F 32.0°F 89% 30.08 in 10.0 miles Calm Calm - N/A   Clear
6:53 AM 35.1°F 32.0°F 89% 30.08 in 10.0 miles North 3.5 mph - N/A   Clear
7:53 AM 35.1°F 33.1°F 92% 30.09 in 10.0 miles Calm Calm - N/A   Clear
8:53 AM 37.0°F 35.1°F 93% 30.09 in 10.0 miles Calm Calm - N/A   Clear
9:53 AM 42.1°F 35.1°F 76% 30.09 in 10.0 miles Calm Calm - N/A   Clear
10:53 AM 43.0°F 35.1°F 74% 30.08 in 10.0 miles Calm Calm - N/A   Clear
11:53 AM 45.0°F 35.1°F 68% 30.06 in 10.0 miles NE 3.5 mph - N/A   Clear
12:53 PM 46.0°F 35.1°F 66% 30.04 in 10.0 miles North 5.8 mph - N/A   Partly Cloudy
1:53 PM 46.9°F 33.1°F 59% 30.03 in 10.0 miles Calm Calm - N/A   Partly Cloudy
2:53 PM 45.0°F 35.1°F 68% 30.01 in 10.0 miles Calm Calm - N/A   Clear
3:53 PM 43.0°F 35.1°F 74% 30.01 in 10.0 miles Calm Calm - N/A   Clear
4:53 PM 39.0°F 34.0°F 82% 30.00 in 10.0 miles Calm Calm - N/A   Clear
5:53 PM 39.9°F 34.0°F 79% 29.98 in 10.0 miles NNW 3.5 mph - N/A   Clear
6:53 PM 36.0°F 33.1°F 89% 29.97 in 10.0 miles Calm Calm - N/A   Clear
7:53 PM 36.0°F 33.1°F 89% 29.96 in 10.0 miles Calm Calm - N/A   Clear
8:53 PM 37.0°F 34.0°F 89% 29.96 in 10.0 miles Variable 3.5 mph - N/A   Scattered Clouds
9:53 PM 37.0°F 34.0°F 89% 29.95 in 10.0 miles Calm Calm - N/A   Clear
10:53 PM 41.0°F 35.1°F 79% 29.93 in 10.0 miles North 6.9 mph - N/A   Clear
11:53 PM 42.1°F 35.1°F 76% 29.92 in 10.0 miles Calm Calm - N/A   Clear
Moon Phase
Nov. 27 Nov. 28 Dec. 06 Dec. 13 Dec. 20
Sunrise:07:38 AM (PST) Moon Rise:03:57 PM (PST)11/27
Sunset:04:21 PM (PST) Moon Set:06:46 AM (PST)11/27

Copyright © 2014 The Weather Underground, Inc.